Tracking 22458 objects as of 4-Mar-2021
HD Live streaming from Space Station
objects crossing your sky now

SL-12 R/B(2)

Track SL-12 R/B(2) now!


NORAD ID: 25598
Int'l Code: 1998-077F
Perigee: 19,083.5 km
Apogee: 19,141.8 km
Inclination: 63.4 °
Period: 674.8 minutes
Semi major axis: 25483 km
RCS: 0.5799 m2 (medium)
Launch date: December 30, 1998
Source: Commonwealth of Independent States (former USSR) (CIS)
Launch site: TYURATAM MISSILE AND SPACE COMPLEX (TTMTR)

Note: This is a ROCKET BODY
aabbcc
Your satellite tracking list
Your tracking list is empty




NASA's NSSDC Master Catalog

Two Line Element Set (TLE):
1 25598U 98077F   21061.51928149  .00000027  00000-0  00000-0 0  9998
2 25598  63.3977 127.7002 0011438 262.3815 157.8366  2.13407426172745
Source of the keplerian elements: AFSPC